CXBN-2 (42704 NORAD) Tracking and Keplerian Element Data

This shows tracking and keplerian element data for the satellite.

Feedback or suggestion? Click here.




ElementValue
Catalog42704
NameCXBN-2
Epoch Orbit8585
Epoch Day319.94294349
Epoch Year2018
RAAN294.5566
Inclination51.6303
Eccentricity0.0004695
Argument of Perigee69.3931
Mean Anonmoly290.7575
Mean Motion15.82821638
Decay Rate0.00060188
L11 42704U 98067LM 18319.94294349 .00060188 00000-0 27922-3 0 9991
L22 42704 51.6303 294.5566 0004695 69.3931 290.7575 15.82821638 85854

Live tracking and technical data element details for CXBN-2 (NORAD 42704). CXBN-2 can be tracked NOW for your location showing map with azimuth and elevation plus other details from your city location.

Track the satellite on the map from your city or location and see movement details for azimuth, elevation, latitude, longitude, range, height, and movement on the map or in text.







IsCatalogInMostPopularTable: catalog: 42704, numindb: 157
Update: records affected: 1



GetName: 42704 CXBN-2

Hit Count: updated at: Fri, 16 Nov 2018 09:48:27 GMT